Location: Rodson Ranch
(38.7188°N, 119.3202°W)
Time: 17:26:05
(UTC+00:00)

COSMO-SKYMED 1 - Pass Details

Date: 29 October 2020
Orbit: 621 x 623 km, 97.9° (Epoch: 23 November)

Event Time Altitude Azimuth Distance (km) Brightness Sun altitude
Rises 13:20:39 0° 172° (S) 2,889 6.2 -12.4°
Reaches altitude 10° 13:22:50 10° 174° (S) 1,987 5.3 -12.0°
Maximum altitude 13:27:09 70° 258° (WSW) 663 2.5 -11.2°
Drops below altitude 10° 13:31:29 10° 343° (NNW) 2,001 4.9 -10.4°
Sets 13:33:42 0° 346° (NNW) 2,911 5.8 -9.9°
